www.pogodaiklimat.ru
ПОГОДА в Сурат аэропорту

Архив погоды в Сурат аэропорту (Гуджарат, Индия)

Время
(UTC), дата
10 24.02
11 24.02
12 24.02
13 24.02
14 24.02
15 24.02
16 24.02
17 24.02
01 25.02
02 25.02
03 25.02
04 25.02
05 25.02
06 25.02
07 25.02
08 25.02
09 25.02
10 25.02
11 25.02
12 25.02
13 25.02
14 25.02
15 25.02
16 25.02
17 25.02
18 25.02
19 25.02
00 26.02
01 26.02
02 26.02
03 26.02
04 26.02
05 26.02
06 26.02
07 26.02
08 26.02
09 26.02
10 26.02
11 26.02
12 26.02
13 26.02
14 26.02
15 26.02
16 26.02
20 26.02
21 26.02
22 26.02
01 27.02
02 27.02
03 27.02
04 27.02
05 27.02
06 27.02
07 27.02
08 27.02
09 27.02
10 27.02
11 27.02
12 27.02
13 27.02
14 27.02
15 27.02
16 27.02
17 27.02
18 27.02
01 28.02
02 28.02
03 28.02
04 28.02
05 28.02
06 28.02
07 28.02
08 28.02
09 28.02
10 28.02
11 28.02
12 28.02
13 28.02
14 28.02
15 28.02
16 28.02
17 28.02
18 28.02
19 28.02
01 29.02
02 29.02
03 29.02
04 29.02
05 29.02
06 29.02
07 29.02
08 29.02
09 29.02
10 29.02
11 29.02
12 29.02
13 29.02
14 29.02
15 29.02
16 29.02
17 29.02
18 29.02
00 1.03
01 1.03
02 1.03
03 1.03
04 1.03
05 1.03
06 1.03
07 1.03
08 1.03
09 1.03
10 1.03
11 1.03
12 1.03
13 1.03
14 1.03
15 1.03
16 1.03
17 1.03
18 1.03
19 1.03
01 2.03
02 2.03
03 2.03
04 2.03
05 2.03
06 2.03
07 2.03
08 2.03
09 2.03
10 2.03
Ветер
(напр.,м/с)
Видим. Явления Облачность Т
(С)
Тd
(С)
f
(%)
Тe
(С)
Тes
(С)
Комфортность P
(гПа)
Po
(гПа)
Тmin
(С)
Tmax
(С)
R
(мм)
R24
(мм)
S
(см)
С 5 н/о ясно +30.0 -1.0 13 +27 +27 жарко 1012.0 1011.4
С 5 н/о ясно +29.0 0.0 15 +26 +26 жарко 1012.0 1011.4
СЗ 5 н/о ясно +29.0 -1.0 14 +26 +26 жарко 1012.0 1011.4
С 3 н/о ясно +26.0 +2.0 21 +25 +25 комфорт 1012.0 1011.4
С 3 н/о ясно +24.0 +6.0 31 +24 +24 комфорт 1013.0 1012.4
С 3 н/о ясно +22.0 +9.0 43 +23 +23 комфорт 1013.0 1012.4
С 3 н/о ясно +22.0 +10.0 46 +24 +24 комфорт 1014.0 1013.4
С 4 н/о ясно +22.0 +4.0 31 +22 +22 комфорт 1014.0 1013.4
С 3 н/о мгла ясно +18.0 +3.0 37 +18 +18 1013.0 1012.4
С 4 н/о мгла ясно +18.0 +3.0 37 +18 +18 1013.0 1012.4
С 3 н/о мгла ясно +19.0 +5.0 40 +20 +20 1014.0 1013.4
СВ 6 н/о мгла ясно +25.0 +1.0 21 +24 +24 комфорт 1015.0 1014.4
СВ 6 н/о дым ясно +27.0 -1.0 16 +25 +25 комфорт 1015.0 1014.4
СВ 6 н/о ясно +30.0 -1.0 13 +27 +27 жарко 1014.0 1013.4
СВ 7 н/о ясно +31.0 -1.0 13 +28 +28 жарко 1013.0 1012.4
СВ 5 н/о ясно +31.0 -2.0 12 +28 +28 жарко 1012.0 1011.4
С 6 н/о ясно +32.0 +2.0 15 +29 +29 жарко 1011.0 1010.4
С 8 н/о ясно +32.0 +2.0 15 +29 +29 жарко 1010.0 1009.4
С 6 н/о ясно +32.0 +2.0 15 +29 +29 жарко 1009.0 1008.4
С 6 н/о ясно +31.0 +4.0 18 +29 +29 жарко 1010.0 1009.4
С 5 н/о ясно +28.0 +5.0 23 +27 +27 жарко 1010.0 1009.4
С 4 н/о ясно +26.0 +5.0 26 +25 +25 комфорт 1011.0 1010.4
С 4 н/о ясно +25.0 +6.0 30 +25 +25 комфорт 1011.0 1010.4
С 5 н/о ясно +25.0 +3.0 24 +24 +24 комфорт 1012.0 1011.4
С 6 н/о ясно +25.0 +1.0 21 +24 +24 комфорт 1012.0 1011.4
С 5 н/о ясно +24.0 +2.0 24 +23 +23 комфорт 1012.0 1011.4
С 4 н/о ясно +23.0 +3.0 27 +23 +23 комфорт 1011.0 1010.4
С 3 н/о ясно +18.0 +7.0 49 +18 +18 1009.0 1008.4
С 4 н/о дым 2/0 2700 м [Ac] +18.0 +8.0 52 +18 +18 1010.0 1009.4
С 3 н/о дым 5/0 2700 м [Ac] +18.0 +8.0 52 +18 +18 1011.0 1010.4
С 3 н/о дым 5/0 2700 м [Ac] +20.0 +9.0 49 +21 +23 комфорт 1012.0 1011.4
СВ 4 н/о дым 5/0 2700 м [Ac] +25.0 +7.0 32 +25 +28 комфорт 1012.0 1011.4
СВ 4 н/о дым 5/0 2700 м [Ac] +28.0 +7.0 26 +27 +32 жарко 1013.0 1012.4
В 4 н/о дым 5/0 2700 м [Ac] +29.0 +7.0 25 +28 +35 жарко 1012.0 1011.4
В 3 н/о дым 5/0 2700 м [Ac] +31.0 +8.0 24 +30 +39 жарко 1011.0 1010.4
СВ 2 н/о дым 5/0 2700 м [Ac] +32.0 +9.0 24 +31 +41 жарко 1011.0 1010.4
В 1 н/о дым 5/0 2700 м [Ac] +34.0 +7.0 19 +32 +42 жарко 1009.0 1008.4
З 5 н/о мгла 5/0 2700 м [Ac] +33.0 +14.0 32 +34 +37 очень жарко 1009.0 1008.4
СЗ 4 н/о дым 5/0 2700 м [Ac] +33.0 +14.0 32 +34 +36 очень жарко 1009.0 1008.4
С 2 н/о дым 5/0 2700 м [Ac] +32.0 +14.0 34 +34 +34 душно 1009.0 1008.4
СЗ 2 н/о дым 5/0 2700 м [Ac] +30.0 +15.0 40 +32 +32 жарко 1009.0 1008.4
С 2 н/о дым 2/0 2700 м [Ac] +27.0 +15.0 48 +30 +30 душно 1010.0 1009.4
С 2 н/о дым 2/0 2700 м [Ac] +26.0 +15.0 51 +29 +29 душно 1011.0 1010.4
С 3 н/о дым 2/0 2700 м [Ac] +26.0 +16.0 54 +29 +29 душно 1011.0 1010.4
Ю 2 н/о дым 2/0 2700 м [Ac] +20.0 +15.0 73 +23 +23 комфорт 1011.0 1010.4
штиль 0 н/о мгла 2/0 2700 м [Ac] +21.0 +15.0 69 +24 +24 комфорт 1010.0 1009.4
С 2 н/о мгла 2/0 2700 м [Ac] +20.0 +16.0 78 +23 +23 комфорт 1011.0 1010.4
В 1 н/о мгла 2/0 2700 м [Ac] +20.0 +16.0 78 +24 +24 комфорт 1012.0 1011.4
В 1 н/о дымка 2/0 2700 м [Ac] +19.0 +16.0 83 +21 +22 комфорт 1013.0 1012.4
З 1 н/о мгла ясно +22.0 +16.0 69 +26 +26 душно 1014.0 1013.4
С 2 н/о мгла ясно +25.0 +15.0 54 +28 +28 жарко 1014.0 1013.4
С 2 н/о мгла ясно +27.0 +16.0 51 +30 +30 душно 1014.0 1013.4
В 1 н/о мгла ясно +31.0 +14.0 36 +33 +33 душно 1014.0 1013.4
Ю 3 н/о дым ясно +34.0 +9.0 22 +33 +33 жарко 1013.0 1012.4
ЮЗ 3 н/о дым ясно +35.0 +9.0 20 +33 +33 жарко 1012.0 1011.4
ЮЗ 4 н/о ясно +34.0 +9.0 22 +33 +33 жарко 1011.0 1010.4
З 4 н/о ясно +34.0 +9.0 22 +33 +33 жарко 1011.0 1010.4
З 4 н/о ясно +33.0 +11.0 26 +33 +33 жарко 1010.0 1009.4
З 4 н/о ясно +31.0 +10.0 27 +31 +31 жарко 1011.0 1010.4
СЗ 2 н/о мгла ясно +29.0 +12.0 35 +30 +30 жарко 1011.0 1010.4
штиль 0 н/о ясно +27.0 +12.0 39 +28 +28 жарко 1011.0 1010.4
ЮЗ 1 н/о ясно +25.0 +13.0 47 +27 +27 жарко 1012.0 1011.4
ЮЗ 1 н/о ясно +24.0 +13.0 50 +26 +26 жарко 1013.0 1012.4
штиль 0 н/о ясно +23.0 +14.0 57 +26 +26 жарко 1013.0 1012.4
С 3 н/о ясно +24.0 +17.0 65 +28 +28 душно 1013.0 1012.4
С 2 н/о дымка ясно +19.0 +15.0 78 +21 +21 комфорт 1012.0 1011.4
СЗ 2 н/о мгла ясно +24.0 +13.0 50 +26 +26 жарко 1013.0 1012.4
С 3 н/о мгла ясно +23.0 +16.0 65 +27 +27 душно 1014.0 1013.4
С 3 н/о мгла ясно +25.0 +17.0 61 +29 +29 душно 1014.0 1013.4
В 1 н/о мгла ясно +29.0 +16.0 45 +32 +32 душно 1014.0 1013.4
СВ 2 н/о дым ясно +32.0 +16.0 38 +35 +35 очень душно 1014.0 1013.4
СВ 2 н/о дым ясно +34.0 +14.0 30 +35 +35 очень жарко 1013.0 1012.4
В 3 н/о дым ясно +34.0 +13.0 28 +34 +34 очень жарко 1012.0 1011.4
С 2 н/о дым ясно +35.0 +12.0 25 +35 +35 очень жарко 1010.0 1009.4
С 4 н/о дым ясно +35.0 +13.0 27 +35 +35 очень жарко 1009.0 1008.4
С 4 н/о дым ясно +36.0 +15.0 29 +38 +38 очень душно 1009.0 1008.4
СЗ 5 н/о дым ясно +32.0 +14.0 34 +34 +34 душно 1009.0 1008.4
С 5 н/о дым ясно +30.0 +12.0 33 +31 +31 жарко 1009.0 1008.4
С 3 н/о дым ясно +28.0 +16.0 48 +31 +31 душно 1010.0 1009.4
С 3 н/о дым ясно +28.0 +15.0 45 +31 +31 душно 1011.0 1010.4
С 4 н/о дым ясно +27.0 +15.0 48 +30 +30 душно 1012.0 1011.4
С 3 н/о дым ясно +26.0 +15.0 51 +29 +29 душно 1012.0 1011.4
СВ 4 н/о дым ясно +27.0 +14.0 45 +29 +29 жарко 1012.0 1011.4
СВ 3 н/о дым ясно +26.0 +13.0 45 +28 +28 жарко 1011.0 1010.4
С 2 н/о мгла ясно +21.0 +15.0 69 +25 +25 комфорт 1011.0 1010.4
С 2 н/о мгла ясно +21.0 +15.0 69 +25 +25 комфорт 1011.0 1010.4
С 2 н/о мгла ясно +22.0 +15.0 64 +25 +25 комфорт 1012.0 1011.4
ЮВ 3 н/о мгла ясно +28.0 +15.0 45 +31 +31 душно 1013.0 1012.4
В 3 н/о дым ясно +32.0 +16.0 38 +35 +35 очень душно 1013.0 1012.4
ЮВ 3 н/о дым ясно +32.0 +15.0 36 +34 +34 душно 1013.0 1012.4
Ю 2 н/о дым ясно +35.0 +17.0 34 +38 +38 очень душно 1012.0 1011.4
Ю 3 н/о дым ясно +36.0 +15.0 29 +38 +38 очень душно 1011.0 1010.4
ЮЗ 3 н/о дым ясно +35.0 +16.0 32 +37 +37 очень душно 1010.0 1009.4
ЮЗ 4 н/о дым ясно +36.0 +14.0 27 +37 +37 душно 1009.0 1008.4
З 4 н/о дым ясно +35.0 +14.0 28 +36 +36 очень жарко 1009.0 1008.4
З 4 н/о дым ясно +34.0 +14.0 30 +35 +35 очень жарко 1009.0 1008.4
З 3 н/о дым ясно +30.0 +15.0 40 +32 +32 жарко 1009.0 1008.4
СЗ 4 н/о дым ясно +28.0 +16.0 48 +31 +31 душно 1010.0 1009.4
СЗ 2 н/о дым ясно +27.0 +17.0 54 +31 +31 душно 1010.0 1009.4
СЗ 4 н/о дым ясно +27.0 +17.0 54 +31 +31 душно 1012.0 1011.4
ЮВ 3 н/о мгла ясно +24.0 +18.0 69 +28 +28 душно 1012.0 1011.4
штиль 0 н/о мгла ясно +24.0 +19.0 74 +29 +29 душно 1012.0 1011.4
штиль 0 н/о мгла ясно +21.0 +18.0 83 +25 +25 комфорт 1011.0 1010.4
штиль 0 н/о мгла ясно +20.0 +18.0 88 +23 +23 комфорт 1012.0 1011.4
штиль 0 н/о мгла 2/0 2700 м [Ac] +20.0 +17.0 83 +23 +23 комфорт 1013.0 1012.4
штиль 0 н/о мгла 2/0 2700 м [Ac] +25.0 +21.0 78 +31 +35 очень душно 1013.0 1012.4
Ю 3 н/о мгла 2/0 2700 м [Ac] +27.0 +20.0 66 +33 +38 очень душно 1014.0 1013.4
Ю 3 н/о дым ясно +30.0 +20.0 55 +36 +36 очень душно 1014.0 1013.4
ЮЗ 4 н/о дым ясно +31.0 +18.0 46 +35 +35 очень душно 1014.0 1013.4
ЮЗ 6 н/о дым ясно +30.0 +17.0 46 +34 +34 очень душно 1013.0 1012.4
З 4 н/о ясно +32.0 +13.0 31 +33 +33 жарко 1012.0 1011.4
З 4 н/о ясно +33.0 +16.5 37 +32 +32 жарко 1011.0 1010.4
З 4 н/о ясно +32.0 +9.0 24 +31 +31 жарко 1010.0 1009.4
ЮЗ 4 н/о ясно +31.0 +15.0 38 +33 +33 душно 1010.0 1009.4
ЮЗ 4 н/о ясно +29.0 +17.0 48 +33 +33 очень душно 1010.0 1009.4
ЮЗ 3 н/о ясно +26.0 +19.0 65 +31 +31 очень душно 1010.0 1009.4
Ю 4 н/о ясно +26.0 +21.0 74 +33 +33 очень душно 1010.0 1009.4
ЮЗ 3 н/о ясно +25.0 +20.0 74 +31 +31 очень душно 1011.0 1010.4
ЮЗ 4 н/о ясно +25.0 +20.0 74 +31 +31 очень душно 1012.0 1011.4
ЮЗ 4 н/о ясно +24.0 +22.0 89 +31 +31 очень душно 1012.0 1011.4
Ю 2 н/о ясно +24.0 +22.0 89 +31 +31 очень душно 1012.0 1011.4
ЮЗ 3 н/о ясно +24.0 +22.0 89 +31 +31 очень душно 1012.0 1011.4
В 2 н/о туман, небо видно ясно +21.0 +20.0 94 +27 +27 душно 1012.0 1011.4
ЮВ 3 н/о туман, небо видно ясно +21.0 +20.0 94 +26 +26 душно 1013.0 1012.4
штиль 0 н/о дымка 2/2 750 м +24.0 +22.0 89 +31 +35 очень душно 1013.0 1012.4
ЮЗ 2 н/о дым 5/5 600 м +26.0 +21.0 74 +33 +37 очень душно 1014.0 1013.4
З 4 н/о дым 5/5 600 м +28.0 +19.0 58 +33 +37 очень душно 1014.0 1013.4
З 3 н/о 5/5 600 м +27.0 +19.0 62 +32 +39 очень душно 1014.0 1013.4
ЮЗ 6 н/о 2/2 750 м +29.0 +19.0 55 +34 +40 очень душно 1013.0 1012.4
ЮЗ 6 н/о 5/5 600 м +27.0 +19.0 62 +32 +36 очень душно 1012.0 1011.4
ЮЗ 6 н/о 2/2 750 м +28.0 +20.0 62 +34 +38 очень душно 1011.0 1010.4
ЮЗ 5 н/о 2/2 750 м +27.0 +20.0 66 +33 +37 очень душно 1010.0 1009.4
Местоположение метеостанции Сурат аэропорт (Гуджарат, Индия): широта 21.11 долгота 72.74 высота над уровнем моря 5 м.
В архиве по умолчанию представлена погода в Сурат аэропорту за последнюю неделю. Архивные данные за месяц целиком и за предыдущие месяцы, начиная с января 2011 года, Вы можете получить, выбрав интересующий диапазон дат из раскрывающегося списка и нажав кнопку "Найти!".
*Определитесь, кто Вы:
Внимание! Время в таблицах - всемирное. Для получения местного времени необходимо прибавить поправку, которая равна 5.5 ч.
Некоторые строки с данными для отдельных станций могут быть выделены курсивом. Это означает, что фактические данные отсутствуют по различным причинам, а приведенные значения являются расчетными модельными данными для данного пункта наблюдений.
Смотрите также архив погоды в соседних городах и на ближайших метеорологических станциях:
Партнеры нашего сайта:      
Пояснения к столбцам:
  • Ветер - указаны скорость ветра в м/с - средняя за 10 мин, порывы в срок и между сроками (в фигурных скобках) и направление, откуда дует ветер: С - северный,
  • СВ - северо-восточный, В - восточный, ЮВ - юго-восточный, Ю - южный, ЮЗ - юго-западный, З - западный, СЗ - северо-западный.
  • Видимость - горизонтальная дальность видимости в метрах или километрах. При видимости от 1 до 10 км при отсутствии осадков обычно наблюдается дымка, при ухудшении видимости до 1 км и менее - туман. В сухую погоду видимость может ухудшаться дымом, пылью или мглою.
  • Явления - указаны атмосферные явления, наблюдавшиеся в срок или в последний час перед сроком; фигурными скобками обозначены явления, наблюдавшиеся между сроками (за 1-3 часа до срока); квадратными скобками обозначены град или гололедные отложения с указанием их диаметра в мм.
  • Облачность - указаны через наклонную черту общая и нижняя облачность в баллах и высота нижней границы облаков в метрах; квадратными скобками обозначены формы облаков: Ci - перистые, Cs - перисто-слоистые, Cc - перисто-кучевые, Ac - высококучевые, As - высокослоистые, Sc - слоисто-кучевые, Ns - слоисто-дождевые, Cu - кучевые, Cb - кучево-дождевые. Подробнее классификацию облаков см. в Атласе облаков (PDF).
  • T - Температура воздуха - температура, измеренная на высоте 2 м над землей.
  • Td - Температура точки росы - температура, при понижении до которой содержащийся в воздухе водяной пар достигнет насыщения.
  • f - Относительная влажность воздуха - влажноcть воздуха, измеренная на высоте 2 м над землей.
  • Te - Эффективная температура - температура, которую ощущает одетый по сезону человек в тени. Характеристика душности погоды. При расчете учитывается влияние влажности воздуха и скорости ветра на теплоощущения человека.
  • Tes - Эффективная температура на солнце - температура, которую ощущает человек, с поправкой на солнечный нагрев. Характеристика знойности погоды. Зависит от высоты солнца над горизонтом, облачности и скорости ветра. Ночью, в пасмурную погоду, а также при ветре 12 м/с и более поправка равна нулю.
  • P - Атмосферное давление - приведенное к уровню моря атмосферное давление.
  • Po - Атмосферное давление - измеренное на уровне метеостанции атмосферное давление.
  • Tmin - Минимальная температура - минимум температуры воздуха на высоте 2 м над землей.
  • Tmax - Максимальная температура - максимум температуры воздуха на высоте 2 м над землей.
  • R - Количество осадков - Количество выпавших осадков за период времени, мм. При наведении курсора мыши на число - период времени, за который выпало указанное количество осадков.
  • R24 - Количество осадков - Количество выпавших осадков за 24 часа, мм.
  • S - Снежный покров - Высота снежного покрова, см. При наведении курсора мыши на число - состояние снежного покрова и степень покрытия местности в баллах.